QPF
0.04 0.05 0.04 0.03 0.03 0.03 0.03 0.03 0.03 0.03 0.02 0.01 0.01 0.01 0.01 0.01 0.02 0.02 0.01 0.02 0.02 0.02 0.02 0.02 0.02 0.03 0.03 0.02 0.01 0.01 0.02 0.02 0.03 0.05 0.07 0.09 0.09 0.08
0.02 0.02 0.02 0.03 0.02 0.02 0.02 0.02 0.03 0.03 0.02 0.02 0.01 0.01 0.01 0.01 0.02 0.02 0.02 0.03 0.02 0.02 0.02 0.02 0.02 0.02 0.02 0.02 0.02 0.02 0.01 0.02 0.03 0.05 0.06 0.08 0.08 0.09
0.02 0.02 0.03 0.04 0.03 0.03 0.02 0.02 0.02 0.03 0.02 0.02 0.01 0.01 0.01 0.02 0.02 0.02 0.03 0.03 0.03 0.03 0.02 0.02 0.02 0.03 0.02 0.02 0.02 0.01 0.01 0.02 0.03 0.05 0.07 0.08 0.09 0.10
0.02 0.03 0.03 0.03 0.02 0.03 0.02 0.02 0.03 0.04 0.04 0.03 0.02 0.02 0.02 0.02 0.03 0.03 0.03 0.03 0.03 0.03 0.03 0.03 0.03 0.02 0.02 0.02 0.02 0.01 0.01 0.02 0.03 0.04 0.07 0.07 0.05 0.07
0.02 0.02 0.02 0.02 0.01 0.03 0.03 0.03 0.04 0.04 0.04 0.04 0.03 0.03 0.03 0.04 0.05 0.05 0.05 0.04 0.04 0.04 0.05 0.04 0.03 0.03 0.03 0.03 0.02 0.02 0.03 0.03 0.03 0.03 0.04 0.06 0.06 0.04
0.01 0.01 0.01 0.01 0.02 0.03 0.03 0.03 0.03 0.02 0.03 0.03 0.03 0.04 0.05 0.06 0.07 0.07 0.07 0.05 0.05 0.05 0.05 0.04 0.04 0.04 0.05 0.04 0.04 0.04 0.05 0.05 0.04 0.03 0.02 0.03 0.05 0.06
0.01 0.01 0.01 0.01 0.01 0.02 0.02 0.02 0.02 0.02 0.02 0.02 0.03 0.03 0.05 0.06 0.06 0.07 0.07 0.06 0.06 0.04 0.04 0.05 0.06 0.06 0.06 0.06 0.05 0.05 0.05 0.05 0.04 0.03 0.02 0.02 0.03 0.04
0.00 0.01 0.01 0.01 0.01 0.03 0.03 0.03 0.03 0.02 0.03 0.03 0.03 0.04 0.04 0.03 0.03 0.04 0.05 0.05 0.04 0.04 0.04 0.05 0.06 0.06 0.05 0.05 0.05 0.04 0.04 0.04 0.03 0.02 0.02 0.02 0.02 0.03
0.00 0.00 0.01 0.02 0.02 0.02 0.03 0.03 0.04 0.06 0.06 0.07 0.06 0.05 0.05 0.04 0.03 0.04 0.04 0.03 0.03 0.03 0.03 0.04 0.04 0.04 0.03 0.02 0.03 0.04 0.05 0.06 0.06 0.04 0.03 0.02 0.02 0.02
0.01 0.02 0.01 0.02 0.02 0.01 0.01 0.01 0.02 0.03 0.05 0.07 0.08 0.08 0.07 0.05 0.04 0.04 0.04 0.03 0.03 0.02 0.02 0.03 0.03 0.03 0.02 0.03 0.03 0.03 0.03 0.05 0.07 0.04 0.03 0.02 0.02 0.02
0.02 0.02 0.02 0.01 0.01 0.01 0.01 0.01 0.01 0.01 0.02 0.02 0.03 0.05 0.05 0.05 0.04 0.04 0.03 0.03 0.03 0.03 0.02 0.02 0.02 0.02 0.02 0.02 0.03 0.03 0.04 0.04 0.05 0.04 0.03 0.02 0.02 0.03
0.03 0.03 0.03 0.03 0.03 0.01 0.00 0.00 0.01 0.01 0.01 0.01 0.01 0.02 0.02 0.02 0.02 0.02 0.02 0.03 0.03 0.03 0.02 0.02 0.02 0.03 0.04 0.03 0.03 0.02 0.02 0.03 0.03 0.02 0.02 0.03 0.04 0.04
0.06 0.07 0.08 0.07 0.06 0.05 0.02 0.01 0.01 0.01 0.00 0.00 0.00 0.01 0.01 0.01 0.02 0.02 0.03 0.04 0.04 0.03 0.03 0.03 0.04 0.04 0.04 0.04 0.03 0.02 0.01 0.01 0.01 0.01 0.01 0.02 0.05 0.06
0.03 0.07 0.09 0.08 0.06 0.05 0.03 0.02 0.01 0.01 0.00 0.00 0.00 0.00 0.01 0.02 0.02 0.02 0.03 0.04 0.04 0.04 0.04 0.03 0.03 0.03 0.03 0.03 0.03 0.02 0.02 0.01 0.01 0.01 0.02 0.02 0.01 0.02
0.01 0.03 0.06 0.06 0.03 0.01 0.01 0.01 0.00 0.00 0.00 0.00 0.01 0.01 0.01 0.02 0.03 0.03 0.03 0.03 0.04 0.04 0.04 0.04 0.03 0.04 0.04 0.04 0.03 0.03 0.02 0.02 0.01 0.01 0.02 0.02 0.02 0.02
0.00 0.00 0.01 0.01 0.01 0.00 0.00 0.00 0.00 0.00 0.00 0.01 0.01 0.01 0.01 0.02 0.03 0.03 0.03 0.03 0.03 0.03 0.03 0.03 0.04 0.04 0.04 0.04 0.03 0.03 0.03 0.02 0.02 0.02 0.02 0.02 0.02 0.01
0.00 0.00 0.00 0.00 0.00 0.00 0.00 0.00 0.00 0.00 0.00 0.01 0.01 0.01 0.01 0.01 0.01 0.02 0.03 0.03 0.03 0.03 0.03 0.04 0.05 0.06 0.06 0.05 0.04 0.03 0.02 0.03 0.03 0.02 0.02 0.02 0.01 0.01
0.00 0.00 0.00 0.00 0.00 0.00 0.00 0.00 0.00 0.00 0.00 0.01 0.01 0.01 0.01 0.01 0.02 0.01 0.02 0.03 0.03 0.04 0.04 0.05 0.05 0.04 0.05 0.06 0.05 0.04 0.03 0.03 0.04 0.04 0.04 0.03 0.02 0.02
0.00 0.00 0.00 0.00 0.00 0.00 0.00 0.00 0.00 0.00 0.00 0.01 0.02 0.03 0.03 0.03 0.03 0.03 0.03 0.03 0.03 0.04 0.05 0.04 0.05 0.05 0.03 0.03 0.03 0.03 0.02 0.03 0.04 0.05 0.05 0.05 0.04 0.04
0.01 0.01 0.01 0.01 0.01 0.01 0.00 0.01 0.01 0.02 0.01 0.01 0.02 0.03 0.03 0.04 0.05 0.04 0.04 0.04 0.04 0.06 0.06 0.05 0.03 0.04 0.04 0.03 0.01 0.01 0.02 0.02 0.04 0.05 0.07 0.08 0.07 0.06
0.02 0.02 0.02 0.02 0.02 0.02 0.02 0.02 0.03 0.03 0.03 0.02 0.02 0.03 0.04 0.04 0.04 0.05 0.05 0.05 0.04 0.03 0.04 0.04 0.03 0.03 0.03 0.04 0.03 0.02 0.02 0.02 0.03 0.03 0.04 0.05 0.06 0.06
0.04 0.04 0.04 0.04 0.04 0.04 0.04 0.04 0.04 0.04 0.04 0.03 0.02 0.03 0.03 0.03 0.03 0.03 0.03 0.02 0.02 0.02 0.03 0.03 0.03 0.02 0.03 0.03 0.03 0.03 0.03 0.02 0.02 0.03 0.04 0.04 0.04 0.05
0.04 0.04 0.04 0.05 0.06 0.06 0.06 0.05 0.05 0.05 0.04 0.04 0.04 0.05 0.03 0.03 0.03 0.03 0.02 0.02 0.02 0.02 0.03 0.04 0.03 0.03 0.03 0.02 0.03 0.02 0.03 0.03 0.03 0.03 0.04 0.04 0.04 0.05
MSLP
1015.10 1015.63 1016.18 1016.75 1017.32 1017.89 1018.44 1018.97 1019.47 1019.95 1020.39 1020.78 1021.12 1021.40 1021.60 1021.71 1021.75 1021.70 1021.59 1021.41 1021.18 1020.92 1020.63 1020.33 1020.03 1019.75 1019.50 1019.30 1019.15 1019.08 1019.08 1019.16 1019.31 1019.50 1019.71 1019.93 1020.13 1020.28
1014.80 1015.27 1015.75 1016.25 1016.76 1017.28 1017.81 1018.35 1018.89 1019.44 1019.96 1020.46 1020.91 1021.28 1021.57 1021.76 1021.85 1021.86 1021.79 1021.67 1021.50 1021.32 1021.14 1020.95 1020.78 1020.63 1020.49 1020.38 1020.29 1020.24 1020.23 1020.26 1020.32 1020.41 1020.51 1020.62 1020.71 1020.78
1014.59 1015.00 1015.42 1015.86 1016.31 1016.78 1017.29 1017.82 1018.39 1018.98 1019.58 1020.16 1020.69 1021.15 1021.51 1021.77 1021.92 1021.97 1021.94 1021.86 1021.76 1021.65 1021.55 1021.47 1021.41 1021.37 1021.34 1021.31 1021.29 1021.27 1021.26 1021.26 1021.26 1021.27 1021.29 1021.30 1021.31 1021.30
1014.45 1014.82 1015.19 1015.57 1015.97 1016.40 1016.87 1017.39 1017.97 1018.58 1019.22 1019.85 1020.45 1020.97 1021.39 1021.70 1021.90 1021.99 1022.00 1021.97 1021.91 1021.86 1021.83 1021.84 1021.87 1021.92 1021.98 1022.03 1022.07 1022.08 1022.08 1022.07 1022.04 1022.00 1021.96 1021.92 1021.87 1021.81
1014.36 1014.69 1015.02 1015.36 1015.72 1016.10 1016.54 1017.03 1017.59 1018.20 1018.85 1019.51 1020.13 1020.69 1021.16 1021.51 1021.75 1021.89 1021.94 1021.95 1021.94 1021.93 1021.96 1022.03 1022.13 1022.24 1022.37 1022.48 1022.56 1022.62 1022.64 1022.63 1022.59 1022.54 1022.48 1022.41 1022.34 1022.26
1014.28 1014.60 1014.91 1015.22 1015.54 1015.88 1016.27 1016.72 1017.24 1017.82 1018.44 1019.09 1019.72 1020.30 1020.79 1021.18 1021.46 1021.63 1021.73 1021.78 1021.81 1021.86 1021.93 1022.04 1022.18 1022.34 1022.51 1022.66 1022.78 1022.87 1022.92 1022.93 1022.92 1022.88 1022.83 1022.78 1022.71 1022.64
1014.21 1014.52 1014.81 1015.10 1015.39 1015.69 1016.03 1016.42 1016.88 1017.41 1017.98 1018.59 1019.20 1019.77 1020.27 1020.68 1021.00 1021.22 1021.37 1021.47 1021.55 1021.63 1021.74 1021.88 1022.05 1022.24 1022.43 1022.61 1022.76 1022.88 1022.96 1023.01 1023.03 1023.04 1023.03 1023.01 1022.98 1022.94
1014.12 1014.42 1014.71 1014.99 1015.25 1015.52 1015.81 1016.14 1016.53 1016.98 1017.49 1018.03 1018.60 1019.14 1019.64 1020.07 1020.42 1020.68 1020.88 1021.03 1021.16 1021.29 1021.43 1021.59 1021.78 1021.98 1022.18 1022.38 1022.55 1022.70 1022.82 1022.92 1023.00 1023.06 1023.11 1023.14 1023.16 1023.16
1014.00 1014.31 1014.60 1014.87 1015.12 1015.35 1015.60 1015.87 1016.18 1016.56 1016.99 1017.46 1017.97 1018.47 1018.95 1019.39 1019.76 1020.06 1020.31 1020.51 1020.68 1020.85 1021.02 1021.20 1021.40 1021.61 1021.83 1022.04 1022.23 1022.41 1022.58 1022.73 1022.86 1022.99 1023.10 1023.19 1023.26 1023.31
1013.85 1014.17 1014.47 1014.74 1014.98 1015.20 1015.41 1015.63 1015.88 1016.18 1016.53 1016.93 1017.37 1017.82 1018.28 1018.70 1019.08 1019.41 1019.69 1019.93 1020.14 1020.34 1020.53 1020.73 1020.94 1021.17 1021.39 1021.62 1021.84 1022.05 1022.26 1022.46 1022.66 1022.85 1023.02 1023.18 1023.30 1023.39
1013.66 1013.99 1014.30 1014.59 1014.83 1015.04 1015.23 1015.41 1015.61 1015.85 1016.13 1016.46 1016.84 1017.24 1017.65 1018.05 1018.43 1018.77 1019.06 1019.33 1019.56 1019.78 1019.99 1020.21 1020.43 1020.66 1020.90 1021.15 1021.39 1021.64 1021.89 1022.15 1022.40 1022.64 1022.87 1023.08 1023.25 1023.37
1013.42 1013.76 1014.09 1014.39 1014.65 1014.86 1015.04 1015.20 1015.37 1015.56 1015.79 1016.06 1016.38 1016.73 1017.10 1017.47 1017.82 1018.15 1018.44 1018.71 1018.95 1019.18 1019.40 1019.63 1019.86 1020.10 1020.35 1020.62 1020.89 1021.17 1021.46 1021.76 1022.06 1022.35 1022.62 1022.87 1023.08 1023.24
1013.10 1013.46 1013.80 1014.12 1014.39 1014.61 1014.79 1014.95 1015.10 1015.26 1015.45 1015.69 1015.96 1016.26 1016.59 1016.92 1017.24 1017.54 1017.82 1018.08 1018.31 1018.54 1018.75 1018.98 1019.22 1019.46 1019.73 1020.01 1020.31 1020.62 1020.94 1021.27 1021.60 1021.92 1022.23 1022.51 1022.76 1022.95
1012.70 1013.06 1013.42 1013.74 1014.02 1014.25 1014.44 1014.60 1014.74 1014.89 1015.07 1015.27 1015.52 1015.79 1016.08 1016.37 1016.66 1016.93 1017.18 1017.41 1017.63 1017.84 1018.05 1018.26 1018.50 1018.75 1019.03 1019.32 1019.64 1019.96 1020.30 1020.65 1021.00 1021.34 1021.67 1021.97 1022.24 1022.46
1012.19 1012.56 1012.91 1013.23 1013.50 1013.74 1013.92 1014.09 1014.23 1014.39 1014.56 1014.76 1014.99 1015.24 1015.51 1015.78 1016.04 1016.28 1016.50 1016.70 1016.90 1017.08 1017.28 1017.49 1017.72 1017.97 1018.25 1018.55 1018.87 1019.20 1019.54 1019.89 1020.24 1020.58 1020.91 1021.23 1021.51 1021.77
1011.58 1011.92 1012.26 1012.56 1012.82 1013.04 1013.22 1013.38 1013.54 1013.70 1013.88 1014.09 1014.33 1014.58 1014.84 1015.10 1015.35 1015.57 1015.77 1015.95 1016.12 1016.29 1016.46 1016.66 1016.89 1017.14 1017.41 1017.71 1018.02 1018.35 1018.68 1019.01 1019.34 1019.67 1019.99 1020.31 1020.61 1020.89
1010.85 1011.17 1011.47 1011.74 1011.96 1012.16 1012.33 1012.48 1012.64 1012.82 1013.02 1013.26 1013.51 1013.79 1014.06 1014.33 1014.57 1014.79 1014.98 1015.15 1015.30 1015.46 1015.62 1015.81 1016.03 1016.27 1016.54 1016.83 1017.14 1017.45 1017.76 1018.06 1018.37 1018.66 1018.96 1019.26 1019.56 1019.86
1010.04 1010.32 1010.57 1010.78 1010.96 1011.12 1011.26 1011.41 1011.57 1011.77 1012.00 1012.26 1012.56 1012.87 1013.17 1013.46 1013.72 1013.94 1014.14 1014.31 1014.46 1014.61 1014.77 1014.95 1015.17 1015.41 1015.67 1015.95 1016.24 1016.53 1016.82 1017.10 1017.36 1017.63 1017.89 1018.17 1018.46 1018.76
1009.16 1009.38 1009.57 1009.72 1009.85 1009.96 1010.08 1010.21 1010.38 1010.60 1010.86 1011.17 1011.50 1011.85 1012.20 1012.52 1012.80 1013.04 1013.25 1013.42 1013.58 1013.73 1013.89 1014.08 1014.29 1014.53 1014.79 1015.07 1015.35 1015.63 1015.90 1016.15 1016.39 1016.62 1016.85 1017.10 1017.37 1017.67
1008.22 1008.38 1008.50 1008.59 1008.66 1008.73 1008.82 1008.95 1009.13 1009.37 1009.66 1010.01 1010.38 1010.77 1011.15 1011.50 1011.82 1012.08 1012.29 1012.47 1012.63 1012.79 1012.96 1013.14 1013.36 1013.61 1013.88 1014.17 1014.45 1014.73 1014.99 1015.23 1015.46 1015.67 1015.88 1016.10 1016.35 1016.63
1007.23 1007.32 1007.37 1007.40 1007.42 1007.46 1007.53 1007.65 1007.84 1008.10 1008.43 1008.81 1009.22 1009.64 1010.05 1010.42 1010.75 1011.02 1011.24 1011.42 1011.58 1011.74 1011.91 1012.11 1012.33 1012.60 1012.88 1013.19 1013.49 1013.79 1014.06 1014.32 1014.55 1014.76 1014.97 1015.19 1015.42 1015.69
1006.20 1006.21 1006.20 1006.17 1006.15 1006.16 1006.22 1006.34 1006.54 1006.82 1007.17 1007.58 1008.01 1008.45 1008.87 1009.25 1009.57 1009.84 1010.05 1010.23 1010.38 1010.53 1010.70 1010.90 1011.14 1011.42 1011.74 1012.07 1012.41 1012.75 1013.06 1013.35 1013.62 1013.86 1014.09 1014.32 1014.56 1014.82
1005.14 1005.07 1004.99 1004.92 1004.86 1004.85 1004.90 1005.03 1005.24 1005.54 1005.90 1006.31 1006.75 1007.19 1007.60 1007.96 1008.27 1008.51 1008.71 1008.86 1009.00 1009.14 1009.30 1009.51 1009.76 1010.06 1010.41 1010.78 1011.17 1011.56 1011.93 1012.28 1012.60 1012.90 1013.18 1013.44 1013.71 1013.99
Thickness
5728 5726 5723 5722 5720 5718 5715 5712 5706 5701 5700 5701 5701 5701 5700 5698 5696 5694 5693 5691 5689 5687 5685 5683 5681 5679 5678 5676 5675 5674 5673 5673 5673 5673 5672 5672 5670 5669
5726 5724 5721 5719 5717 5715 5713 5710 5708 5704 5700 5700 5698 5698 5696 5695 5693 5691 5689 5687 5685 5683 5681 5679 5677 5675 5673 5671 5670 5669 5668 5667 5667 5666 5666 5666 5664 5663
5723 5721 5718 5717 5714 5712 5710 5707 5705 5702 5698 5697 5696 5694 5692 5690 5689 5687 5685 5684 5681 5679 5677 5674 5672 5670 5668 5666 5665 5663 5662 5661 5661 5660 5659 5659 5658 5657
5720 5717 5715 5714 5711 5709 5706 5704 5701 5699 5696 5693 5692 5690 5688 5686 5684 5682 5681 5679 5677 5675 5673 5670 5668 5666 5664 5661 5660 5658 5656 5655 5655 5654 5653 5652 5651 5650
5717 5715 5712 5710 5707 5705 5702 5700 5698 5696 5694 5690 5688 5686 5684 5681 5679 5677 5676 5674 5673 5671 5669 5667 5664 5662 5660 5657 5655 5653 5651 5650 5649 5648 5646 5646 5645 5644
5713 5712 5709 5707 5704 5701 5699 5696 5694 5691 5688 5686 5684 5681 5679 5676 5674 5672 5670 5668 5667 5666 5664 5662 5660 5657 5655 5653 5650 5648 5646 5644 5643 5641 5640 5639 5638 5637
5709 5707 5705 5703 5701 5698 5696 5693 5690 5687 5684 5681 5679 5676 5673 5670 5669 5667 5665 5663 5662 5660 5658 5656 5654 5651 5649 5647 5645 5642 5640 5638 5637 5635 5633 5632 5631 5630
5703 5702 5700 5698 5696 5694 5691 5689 5686 5683 5680 5677 5674 5672 5670 5667 5664 5662 5659 5657 5656 5654 5652 5651 5648 5646 5643 5640 5638 5636 5634 5632 5630 5628 5627 5625 5624 5623
5698 5697 5696 5694 5691 5688 5685 5683 5681 5679 5676 5674 5671 5668 5666 5664 5660 5657 5654 5652 5651 5649 5646 5645 5642 5639 5637 5635 5633 5630 5628 5626 5624 5622 5620 5618 5617 5616
5694 5692 5690 5688 5686 5683 5680 5677 5675 5673 5671 5668 5666 5664 5662 5660 5656 5654 5651 5647 5645 5643 5640 5638 5636 5633 5631 5629 5626 5624 5622 5620 5618 5615 5613 5612 5611 5609
5689 5687 5685 5683 5681 5678 5675 5671 5669 5667 5665 5663 5661 5658 5656 5654 5651 5647 5644 5642 5640 5638 5634 5632 5630 5627 5625 5623 5620 5618 5616 5614 5612 5610 5608 5606 5604 5602
5684 5682 5680 5677 5674 5671 5668 5665 5663 5661 5658 5657 5654 5652 5650 5648 5646 5643 5640 5637 5635 5632 5630 5626 5624 5621 5619 5617 5614 5612 5610 5608 5606 5604 5602 5600 5598 5596
5679 5677 5674 5671 5668 5665 5662 5660 5657 5655 5652 5649 5647 5646 5644 5642 5640 5638 5635 5633 5630 5628 5626 5622 5619 5615 5613 5610 5608 5606 5603 5601 5599 5597 5595 5594 5592 5589
5674 5672 5669 5665 5662 5659 5656 5654 5651 5648 5645 5642 5640 5639 5638 5636 5634 5632 5629 5627 5626 5624 5621 5617 5614 5611 5608 5605 5603 5600 5597 5595 5593 5591 5589 5588 5586 5584
5669 5666 5663 5659 5656 5653 5651 5648 5645 5642 5639 5636 5634 5633 5632 5630 5627 5625 5623 5621 5619 5617 5615 5612 5609 5606 5603 5601 5598 5595 5592 5590 5588 5586 5584 5582 5580 5579
5662 5659 5656 5652 5649 5646 5643 5641 5638 5636 5633 5631 5629 5627 5625 5623 5621 5618 5616 5614 5612 5610 5608 5605 5603 5600 5598 5596 5593 5591 5588 5586 5584 5581 5579 5577 5575 5574
5654 5651 5648 5645 5642 5639 5637 5634 5631 5629 5626 5624 5622 5620 5618 5616 5614 5612 5609 5607 5605 5603 5601 5598 5595 5593 5591 5590 5587 5586 5584 5581 5580 5576 5573 5573 5572 5570
5647 5644 5642 5639 5636 5633 5630 5627 5625 5622 5620 5618 5616 5614 5612 5610 5608 5606 5603 5601 5599 5597 5594 5591 5588 5585 5584 5582 5581 5581 5579 5577 5575 5572 5569 5568 5568 5566
5640 5639 5636 5633 5630 5627 5624 5622 5619 5617 5614 5612 5610 5608 5606 5604 5602 5599 5597 5594 5592 5590 5588 5584 5581 5579 5579 5579 5578 5574 5573 5572 5569 5567 5565 5563 5563 5562
5633 5631 5629 5626 5623 5621 5618 5615 5612 5610 5607 5605 5603 5601 5599 5597 5595 5593 5591 5588 5585 5583 5581 5578 5575 5574 5573 5573 5571 5568 5566 5565 5565 5563 5561 5558 5556 5555
5626 5624 5621 5619 5616 5613 5611 5607 5604 5602 5601 5599 5597 5594 5592 5590 5588 5587 5585 5580 5578 5576 5575 5573 5571 5567 5565 5563 5562 5562 5560 5558 5558 5557 5556 5553 5552 5550
5620 5617 5614 5611 5608 5605 5602 5600 5597 5594 5593 5591 5590 5588 5586 5584 5582 5580 5578 5576 5573 5571 5569 5567 5563 5560 5557 5556 5557 5555 5553 5551 5550 5549 5548 5548 5547 5547
5612 5610 5607 5604 5601 5597 5595 5592 5590 5587 5585 5584 5582 5580 5579 5577 5575 5574 5572 5570 5567 5565 5562 5560 5557 5554 5552 5550 5549 5548 5546 5545 5544 5543 5542 5541 5540 5539